TimeCDT,TemperatureF,Dew PointF,Humidity,Sea Level PressureIn,VisibilityMPH,Wind Direction,Wind SpeedMPH,Gust SpeedMPH,PrecipitationIn,Events,Conditions,WindDirDegrees,DateUTC
12:15 AM,73.4,69.8,88,30.07,10.0,ENE,5.8,-,N/A,,Clear,70,2013-07-15 05:15:00
12:35 AM,73.4,69.8,88,30.08,10.0,East,3.5,-,N/A,,Scattered Clouds,90,2013-07-15 05:35:00
12:55 AM,73.4,69.8,88,30.08,10.0,East,5.8,-,N/A,,Scattered Clouds,90,2013-07-15 05:55:00
1:15 AM,73.4,69.8,88,30.08,10.0,East,6.9,-,N/A,,Clear,90,2013-07-15 06:15:00
1:35 AM,73.4,69.8,88,30.07,10.0,East,5.8,-,N/A,,Clear,100,2013-07-15 06:35:00
1:55 AM,73.4,69.8,88,30.07,10.0,ESE,6.9,-,N/A,,Clear,110,2013-07-15 06:55:00
2:15 AM,73.4,69.8,88,30.07,10.0,ESE,4.6,-,N/A,,Clear,110,2013-07-15 07:15:00
2:35 AM,73.4,69.8,88,30.07,10.0,East,4.6,-,N/A,,Clear,100,2013-07-15 07:35:00
2:55 AM,71.6,69.8,94,30.07,10.0,East,5.8,-,N/A,,Clear,100,2013-07-15 07:55:00
3:15 AM,71.6,69.8,94,30.07,10.0,East,5.8,-,N/A,,Clear,90,2013-07-15 08:15:00
3:35 AM,71.6,69.8,94,30.08,10.0,East,4.6,-,N/A,,Clear,90,2013-07-15 08:35:00
3:55 AM,71.6,69.8,94,30.08,10.0,East,5.8,-,N/A,,Clear,80,2013-07-15 08:55:00
4:15 AM,71.6,69.8,94,30.09,10.0,East,5.8,-,N/A,,Clear,80,2013-07-15 09:15:00
4:35 AM,71.6,69.8,94,30.09,10.0,East,4.6,-,N/A,,Clear,80,2013-07-15 09:35:00
4:55 AM,73.4,69.8,88,30.10,10.0,East,3.5,-,N/A,,Scattered Clouds,100,2013-07-15 09:55:00
5:15 AM,73.4,69.8,88,30.10,10.0,East,5.8,-,N/A,,Mostly Cloudy,100,2013-07-15 10:15:00
5:35 AM,73.4,69.8,88,30.11,10.0,East,6.9,-,N/A,,Scattered Clouds,100,2013-07-15 10:35:00
5:55 AM,73.4,69.8,88,30.11,10.0,East,9.2,-,N/A,,Mostly Cloudy,100,2013-07-15 10:55:00
6:15 AM,73.4,69.8,88,30.12,10.0,East,6.9,-,N/A,,Scattered Clouds,90,2013-07-15 11:15:00
6:35 AM,73.4,69.8,88,30.13,10.0,East,4.6,-,N/A,,Scattered Clouds,100,2013-07-15 11:35:00
6:55 AM,75.2,71.6,89,30.13,10.0,East,8.1,-,N/A,,Scattered Clouds,100,2013-07-15 11:55:00
7:15 AM,75.2,71.6,89,30.14,10.0,East,9.2,-,N/A,,Clear,100,2013-07-15 12:15:00
7:35 AM,77.0,71.6,83,30.14,10.0,East,8.1,-,N/A,,Clear,100,2013-07-15 12:35:00
7:55 AM,78.8,71.6,78,30.15,10.0,East,8.1,-,N/A,,Clear,100,2013-07-15 12:55:00
8:15 AM,77.0,71.6,83,30.16,10.0,ESE,9.2,-,N/A,,Scattered Clouds,110,2013-07-15 13:15:00
8:35 AM,78.8,71.6,78,30.16,10.0,SE,6.9,-,N/A,,Scattered Clouds,130,2013-07-15 13:35:00
8:55 AM,78.8,71.6,78,30.17,10.0,SE,8.1,-,N/A,,Mostly Cloudy,130,2013-07-15 13:55:00
9:15 AM,78.8,71.6,78,30.18,10.0,SE,11.5,-,N/A,,Overcast,130,2013-07-15 14:15:00
9:35 AM,78.8,71.6,78,30.17,10.0,SE,10.4,-,N/A,,Scattered Clouds,130,2013-07-15 14:35:00
9:55 AM,80.6,71.6,74,30.17,10.0,ESE,8.1,-,N/A,,Clear,120,2013-07-15 14:55:00
10:15 AM,80.6,71.6,74,30.17,10.0,SE,6.9,-,N/A,,Clear,140,2013-07-15 15:15:00
10:35 AM,80.6,71.6,74,30.17,10.0,ESE,8.1,-,N/A,,Scattered Clouds,110,2013-07-15 15:35:00
10:55 AM,78.8,73.4,83,30.17,7.0,ESE,10.4,-,N/A,Rain,Light Rain,120,2013-07-15 15:55:00
11:15 AM,80.6,73.4,79,30.17,10.0,SE,10.4,-,N/A,,Scattered Clouds,130,2013-07-15 16:15:00
11:35 AM,78.8,71.6,78,30.18,10.0,SSW,8.1,16.1,N/A,Rain,Rain,210,2013-07-15 16:35:00
11:55 AM,73.4,71.6,94,30.18,1.2,Calm,Calm,-,0.37,Rain,Rain,0,2013-07-15 16:55:00
12:15 PM,77.0,73.4,89,30.17,10.0,Calm,Calm,-,N/A,,Mostly Cloudy,0,2013-07-15 17:15:00
12:35 PM,78.8,73.4,83,30.16,10.0,East,6.9,-,N/A,,Scattered Clouds,90,2013-07-15 17:35:00
12:55 PM,78.8,73.4,83,30.16,10.0,ESE,8.1,-,N/A,,Mostly Cloudy,120,2013-07-15 17:55:00
1:15 PM,80.6,73.4,79,30.16,10.0,SE,6.9,-,N/A,Thunderstorm,Mostly Cloudy,130,2013-07-15 18:15:00
1:35 PM,82.4,73.4,74,30.15,10.0,SE,6.9,-,N/A,,Scattered Clouds,140,2013-07-15 18:35:00
1:55 PM,82.4,73.4,74,30.15,10.0,SSE,5.8,-,N/A,,Mostly Cloudy,150,2013-07-15 18:55:00
2:15 PM,84.2,73.4,70,30.13,10.0,SE,6.9,-,N/A,,Scattered Clouds,140,2013-07-15 19:15:00
2:35 PM,86.0,73.4,66,30.13,10.0,SE,8.1,-,N/A,,Scattered Clouds,140,2013-07-15 19:35:00
2:55 PM,86.0,71.6,62,30.13,10.0,SSE,4.6,-,N/A,,Clear,150,2013-07-15 19:55:00
3:15 PM,87.8,71.6,58,30.12,10.0,ESE,8.1,-,N/A,,Clear,110,2013-07-15 20:15:00
3:35 PM,87.8,71.6,58,30.12,10.0,ESE,4.6,-,N/A,,Scattered Clouds,120,2013-07-15 20:35:00
3:55 PM,87.8,71.6,58,30.11,10.0,ESE,6.9,-,N/A,,Scattered Clouds,110,2013-07-15 20:55:00
4:15 PM,87.8,71.6,58,30.11,10.0,ESE,6.9,-,N/A,,Clear,110,2013-07-15 21:15:00
4:35 PM,87.8,71.6,58,30.11,10.0,ESE,4.6,-,N/A,,Clear,110,2013-07-15 21:35:00
4:55 PM,89.6,69.8,52,30.10,10.0,East,6.9,-,N/A,,Clear,90,2013-07-15 21:55:00
5:15 PM,87.8,71.6,58,30.10,10.0,East,8.1,-,N/A,,Clear,90,2013-07-15 22:15:00
5:35 PM,87.8,69.8,55,30.10,10.0,ESE,8.1,-,N/A,,Clear,110,2013-07-15 22:35:00
5:55 PM,87.8,71.6,58,30.10,10.0,East,6.9,-,N/A,,Clear,100,2013-07-15 22:55:00
6:15 PM,87.8,71.6,58,30.11,10.0,East,6.9,-,N/A,,Clear,100,2013-07-15 23:15:00
6:35 PM,87.8,71.6,58,30.11,10.0,East,8.1,-,N/A,,Clear,100,2013-07-15 23:35:00
6:55 PM,87.8,71.6,58,30.11,10.0,East,6.9,-,N/A,,Clear,90,2013-07-15 23:55:00
7:15 PM,87.8,71.6,58,30.12,10.0,East,6.9,-,N/A,,Clear,100,2013-07-16 00:15:00
7:35 PM,86.0,71.6,62,30.13,10.0,East,8.1,-,N/A,,Clear,100,2013-07-16 00:35:00
7:55 PM,86.0,71.6,62,30.13,10.0,East,5.8,-,N/A,,Clear,90,2013-07-16 00:55:00
8:15 PM,82.4,73.4,74,30.14,10.0,East,4.6,-,N/A,,Scattered Clouds,80,2013-07-16 01:15:00
8:35 PM,82.4,71.6,70,30.15,10.0,East,9.2,-,N/A,,Scattered Clouds,90,2013-07-16 01:35:00
8:55 PM,82.4,71.6,70,30.16,10.0,ESE,10.4,16.1,N/A,,Scattered Clouds,110,2013-07-16 01:55:00
9:15 PM,80.6,71.6,74,30.17,10.0,East,9.2,16.1,N/A,,Clear,100,2013-07-16 02:15:00
9:35 PM,80.6,71.6,74,30.18,10.0,East,10.4,-,N/A,,Scattered Clouds,100,2013-07-16 02:35:00
9:55 PM,80.6,71.6,74,30.18,10.0,ESE,9.2,-,N/A,,Scattered Clouds,110,2013-07-16 02:55:00
10:15 PM,78.8,71.6,78,30.18,10.0,ESE,6.9,-,N/A,,Clear,110,2013-07-16 03:15:00
10:35 PM,78.8,71.6,78,30.18,10.0,ESE,5.8,-,N/A,,Clear,110,2013-07-16 03:35:00
10:55 PM,78.8,71.6,78,30.18,10.0,ESE,4.6,-,N/A,,Clear,110,2013-07-16 03:55:00
11:15 PM,77.0,71.6,83,30.18,10.0,ESE,4.6,-,N/A,,Clear,110,2013-07-16 04:15:00
11:35 PM,77.0,71.6,83,30.18,10.0,ESE,4.6,-,N/A,,Clear,110,2013-07-16 04:35:00
11:55 PM,77.0,71.6,83,30.18,10.0,ESE,4.6,-,N/A,,Clear,110,2013-07-16 04:55:00